Total_Precipitation_Accumulation
0.13 0.15 0.19 0.21 0.22 0.22 0.24 0.30 0.33 0.40 0.47 0.53 0.66 0.83 1.01 1.00 1.07 1.02 0.79 0.70 0.78 0.93 1.01 0.93 0.84 0.68 0.55 0.44 0.38 0.45 0.43 0.27 0.08 0.07 0.05 0.02 0.01 0.01 0.00 0.00 0.01 0.02 0.02
0.07 0.07 0.09 0.12 0.14 0.15 0.16 0.21 0.29 0.38 0.46 0.54 0.70 0.85 0.96 0.89 0.98 1.10 1.02 0.87 0.81 0.92 1.01 1.12 1.06 0.89 0.80 0.81 0.81 0.94 0.95 0.64 0.30 0.25 0.26 0.15 0.09 0.02 0.02 0.01 0.01 0.02 0.04
0.06 0.06 0.06 0.07 0.09 0.10 0.11 0.14 0.20 0.30 0.43 0.58 0.81 1.01 1.18 1.23 1.25 1.14 1.17 1.12 0.98 0.94 0.91 1.05 1.08 0.98 0.92 0.97 1.03 1.21 1.40 1.14 0.76 0.52 0.54 0.44 0.39 0.21 0.05 0.02 0.03 0.02 0.02
0.08 0.06 0.05 0.06 0.06 0.06 0.07 0.10 0.18 0.32 0.53 0.73 0.98 1.23 1.42 1.43 1.29 1.30 1.28 1.10 0.97 0.92 0.89 0.93 1.01 1.05 0.99 1.06 1.06 1.08 1.39 1.49 1.20 0.95 0.69 0.51 0.42 0.34 0.22 0.07 0.03 0.05 0.03
0.13 0.11 0.09 0.11 0.11 0.11 0.13 0.20 0.39 0.62 0.86 1.06 1.30 1.58 1.59 1.47 1.37 1.33 1.29 1.20 1.12 1.05 1.00 1.04 1.01 0.97 0.97 1.03 1.19 1.28 1.46 1.56 1.42 1.24 1.07 0.90 0.71 0.44 0.38 0.32 0.12 0.04 0.03
0.21 0.25 0.29 0.33 0.36 0.40 0.52 0.73 0.96 1.12 1.19 1.30 1.42 1.55 1.55 1.57 1.51 1.31 1.21 1.17 1.17 1.18 1.18 1.16 1.02 0.91 0.91 0.96 1.09 1.24 1.39 1.56 1.57 1.33 1.10 1.01 0.90 0.79 0.63 0.44 0.30 0.15 0.04
0.32 0.43 0.58 0.69 0.79 0.90 1.00 1.14 1.31 1.41 1.34 1.30 1.32 1.36 1.37 1.36 1.36 1.30 1.16 1.08 1.07 1.08 1.10 1.14 1.17 1.11 1.04 1.04 1.08 1.15 1.13 1.24 1.42 1.28 1.11 0.99 0.84 0.80 0.78 0.63 0.45 0.33 0.13
0.50 0.60 0.69 0.79 0.92 1.02 1.05 1.06 1.15 1.22 1.19 1.15 1.13 1.09 1.10 1.08 1.02 0.94 0.93 0.96 0.98 0.98 0.94 0.92 0.97 1.05 1.08 1.00 0.93 0.83 0.80 0.88 1.04 1.07 1.12 1.13 0.95 0.79 0.70 0.64 0.57 0.44 0.35
0.77 0.90 0.99 1.09 1.09 1.08 1.08 0.98 0.98 1.01 1.01 0.96 0.89 0.86 0.84 0.84 0.80 0.75 0.76 0.74 0.73 0.69 0.66 0.67 0.67 0.71 0.71 0.65 0.64 0.65 0.66 0.64 0.75 0.87 0.94 1.05 1.09 0.97 0.76 0.68 0.63 0.56 0.50
1.01 1.28 1.50 1.61 1.40 1.10 0.97 0.91 0.83 0.83 0.86 0.86 0.83 0.79 0.74 0.69 0.66 0.65 0.66 0.63 0.55 0.49 0.47 0.45 0.41 0.38 0.36 0.36 0.40 0.44 0.49 0.50 0.54 0.66 0.73 0.79 0.84 0.98 0.93 0.79 0.74 0.66 0.56
1.15 1.29 1.47 1.60 1.46 1.11 0.86 0.82 0.82 0.78 0.75 0.76 0.75 0.72 0.67 0.59 0.55 0.55 0.56 0.55 0.50 0.46 0.41 0.38 0.37 0.39 0.35 0.32 0.34 0.32 0.29 0.29 0.32 0.38 0.44 0.55 0.77 1.00 1.02 0.96 0.85 0.77 0.67
1.08 1.05 1.10 1.14 1.13 0.97 0.79 0.73 0.78 0.78 0.76 0.78 0.76 0.72 0.63 0.56 0.53 0.49 0.45 0.40 0.36 0.33 0.32 0.34 0.32 0.30 0.32 0.31 0.33 0.33 0.29 0.26 0.26 0.26 0.29 0.40 0.65 0.92 1.07 1.14 1.07 0.94 0.83
1.05 1.01 0.93 0.85 0.85 0.82 0.75 0.72 0.82 0.89 0.93 0.91 0.77 0.65 0.59 0.56 0.55 0.45 0.39 0.37 0.31 0.29 0.27 0.34 0.34 0.33 0.34 0.32 0.32 0.33 0.32 0.29 0.30 0.32 0.30 0.30 0.42 0.65 0.86 1.00 1.06 1.02 0.98
0.75 0.69 0.64 0.59 0.58 0.61 0.65 0.69 0.79 0.86 0.97 1.05 0.94 0.77 0.65 0.58 0.52 0.45 0.43 0.41 0.38 0.39 0.42 0.47 0.49 0.42 0.37 0.36 0.37 0.34 0.30 0.27 0.27 0.28 0.28 0.29 0.29 0.38 0.53 0.69 0.83 0.98 1.10
0.37 0.36 0.36 0.34 0.32 0.32 0.34 0.42 0.54 0.69 0.87 1.05 1.03 0.85 0.73 0.65 0.58 0.54 0.54 0.52 0.55 0.51 0.49 0.54 0.61 0.67 0.62 0.57 0.60 0.48 0.38 0.32 0.27 0.25 0.20 0.19 0.20 0.23 0.31 0.40 0.59 0.87 1.08
0.25 0.24 0.22 0.20 0.16 0.13 0.15 0.17 0.25 0.42 0.58 0.74 0.80 0.76 0.66 0.55 0.49 0.51 0.52 0.49 0.47 0.43 0.43 0.45 0.50 0.58 0.61 0.76 0.66 0.43 0.32 0.28 0.28 0.28 0.23 0.18 0.14 0.15 0.19 0.23 0.30 0.49 0.67
0.19 0.18 0.19 0.18 0.17 0.15 0.14 0.13 0.17 0.24 0.34 0.47 0.56 0.54 0.49 0.42 0.36 0.38 0.40 0.38 0.34 0.35 0.35 0.34 0.34 0.38 0.48 0.50 0.34 0.27 0.23 0.24 0.26 0.29 0.28 0.21 0.16 0.14 0.14 0.17 0.21 0.25 0.31
0.18 0.16 0.16 0.15 0.13 0.12 0.11 0.11 0.14 0.17 0.18 0.22 0.26 0.27 0.27 0.26 0.28 0.30 0.30 0.30 0.28 0.27 0.27 0.34 0.40 0.39 0.36 0.34 0.24 0.20 0.20 0.29 0.29 0.24 0.21 0.21 0.21 0.22 0.23 0.17 0.18 0.23 0.28
0.09 0.08 0.07 0.06 0.05 0.04 0.04 0.04 0.05 0.05 0.05 0.06 0.08 0.10 0.12 0.13 0.17 0.17 0.20 0.29 0.32 0.32 0.35 0.45 0.51 0.44 0.33 0.31 0.28 0.25 0.25 0.33 0.36 0.29 0.24 0.23 0.26 0.40 0.33 0.19 0.21 0.27 0.34
0.02 0.02 0.01 0.01 0.01 0.00 0.00 0.00 0.00 0.00 0.00 0.00 0.00 0.01 0.01 0.02 0.05 0.08 0.10 0.16 0.22 0.29 0.35 0.36 0.33 0.32 0.36 0.37 0.29 0.31 0.33 0.38 0.44 0.38 0.33 0.41 0.37 0.41 0.31 0.19 0.26 0.34 0.34
0.00 0.00 0.00 0.00 0.00 0.00 0.00 0.00 0.00 0.00 0.00 0.00 0.00 0.00 0.00 0.00 0.01 0.01 0.02 0.04 0.09 0.12 0.13 0.14 0.16 0.22 0.38 0.40 0.34 0.37 0.33 0.34 0.39 0.41 0.41 0.36 0.39 0.30 0.24 0.19 0.19 0.31 0.28
0.00 0.00 0.00 0.00 0.00 0.00 0.00 0.00 0.00 0.00 0.00 0.00 0.00 0.00 0.00 0.00 0.00 0.01 0.01 0.01 0.02 0.03 0.05 0.07 0.10 0.15 0.22 0.26 0.24 0.22 0.21 0.24 0.33 0.38 0.38 0.34 0.44 0.32 0.19 0.13 0.16 0.22 0.21
0.00 0.00 0.00 0.00 0.00 0.00 0.00 0.00 0.00 0.00 0.00 0.00 0.00 0.00 0.00 0.01 0.00 0.01 0.01 0.01 0.02 0.04 0.04 0.07 0.11 0.14 0.19 0.18 0.15 0.11 0.12 0.18 0.26 0.31 0.38 0.41 0.36 0.24 0.16 0.17 0.19 0.19 0.19
0.00 0.00 0.00 0.00 0.00 0.00 0.00 0.00 0.00 0.00 0.00 0.00 0.00 0.00 0.01 0.01 0.01 0.01 0.01 0.02 0.02 0.04 0.07 0.12 0.16 0.17 0.20 0.19 0.19 0.20 0.19 0.21 0.22 0.26 0.32 0.33 0.26 0.21 0.20 0.21 0.20 0.21 0.24
0.00 0.00 0.00 0.00 0.00 0.00 0.00 0.00 0.00 0.00 0.00 0.00 0.00 0.00 0.01 0.01 0.01 0.01 0.01 0.01 0.02 0.04 0.09 0.12 0.15 0.15 0.15 0.14 0.15 0.24 0.30 0.38 0.45 0.44 0.37 0.35 0.34 0.30 0.24 0.19 0.18 0.19 0.20
0.00 0.00 0.00 0.00 0.00 0.00 0.00 0.00 0.00 0.00 0.00 0.00 0.00 0.00 0.01 0.01 0.01 0.02 0.01 0.01 0.01 0.01 0.04 0.05 0.07 0.11 0.12 0.08 0.08 0.15 0.28 0.42 0.57 0.74 0.72 0.69 0.65 0.58 0.42 0.23 0.13 0.12 0.13